Probability
0 0 0 0 0 0 0 0 0 0 0 0 0 0 0 0 0 0 0 0 0 0 0 0 0 0 0 0 0 0 0 0 0 0 0 0 0 0 0 0 0 0 0 0
0 0 0 0 0 0 0 0 0 0 0 0 0 0 0 0 0 0 0 0 0 0 0 0 0 0 0 0 0 0 0 0 0 0 0 0 0 0 0 0 0 0 0 0
0 0 0 0 0 0 0 0 0 0 0 0 0 0 0 0 0 0 0 0 0 0 0 0 0 0 0 0 0 0 0 0 0 0 0 0 0 0 0 0 0 0 0 0
0 0 0 0 0 0 0 0 0 0 0 0 0 0 0 0 0 0 0 0 0 0 0 0 0 0 0 0 0 0 0 0 0 0 0 0 0 0 0 0 0 0 0 0
0 0 0 0 0 0 0 0 0 0 0 0 0 0 0 0 0 0 0 0 0 0 0 0 0 0 0 0 0 0 0 0 0 0 0 0 0 0 0 0 0 0 0 0
0 0 0 0 0 0 0 0 0 0 0 0 0 0 0 0 0 0 0 0 0 0 0 0 0 0 0 0 0 0 0 0 0 0 0 0 0 0 0 0 0 0 0 0
0 0 0 0 0 0 0 0 0 0 0 0 0 0 0 0 0 0 0 0 0 0 0 0 0 0 0 0 0 0 0 0 0 0 0 0 0 0 0 0 0 0 0 0
0 0 0 0 0 0 0 0 0 0 0 0 0 0 0 0 0 0 0 0 0 0 0 0 0 0 0 0 0 0 0 0 0 0 0 0 0 0 0 0 0 0 0 0
0 0 0 0 0 0 0 0 0 0 0 0 0 0 0 0 0 0 0 0 0 0 0 0 0 0 0 0 0 0 0 0 0 0 0 0 0 0 0 0 0 0 0 0
0 0 0 0 0 0 0 0 0 0 0 0 0 0 0 0 0 0 0 0 0 0 0 0 0 0 0 0 0 0 0 0 0 0 0 0 0 0 0 0 0 0 0 0
0 0 0 0 0 0 0 0 0 0 0 0 0 0 0 0 0 0 0 0 0 0 0 0 0 0 0 0 0 0 0 0 0 0 0 0 0 0 0 0 0 0 0 0
0 0 0 0 0 0 0 0 0 0 0 0 0 0 0 0 0 0 0 0 0 0 0 0 0 0 0 0 0 0 0 0 0 0 0 0 0 0 0 0 0 0 0 0
0 0 0 0 0 0 0 0 0 0 0 0 0 0 0 0 0 0 0 0 0 0 0 0 0 0 0 0 0 0 0 0 0 0 0 0 0 0 0 0 0 0 0 0
0 0 0 0 0 0 0 0 0 0 0 0 0 0 0 0 0 0 0 0 0 0 0 0 0 0 0 0 0 0 0 0 0 0 0 0 0 0 0 0 0 0 0 0
0 0 0 0 0 0 0 0 0 0 0 0 0 0 0 0 0 0 0 0 0 0 0 0 0 0 0 0 0 0 0 0 0 0 0 0 0 0 0 0 0 0 0 0
0 0 0 0 0 0 0 0 0 0 0 0 0 0 0 0 0 0 0 0 0 0 0 0 0 0 0 0 0 0 0 0 0 0 0 0 0 0 0 0 0 0 0 0
0 0 0 0 0 0 0 0 0 0 0 0 0 0 0 0 0 0 0 0 0 0 0 0 0 0 0 0 0 0 0 0 0 0 0 0 0 0 0 0 0 0 0 0
0 0 0 0 0 0 0 0 0 0 0 0 0 0 0 0 0 0 0 0 0 0 0 0 0 0 0 0 0 0 0 0 0 0 0 0 0 0 0 0 0 0 0 0
0 0 0 0 0 0 0 0 0 0 0 0 0 0 0 0 0 0 0 0 0 0 0 0 0 0 0 0 0 0 0 0 0 0 0 0 0 0 0 0 0 0 0 0
0 0 0 0 0 0 0 0 0 0 0 0 0 0 0 0 0 0 0 0 0 0 0 0 0 0 0 0 0 0 0 0 0 0 0 0 0 0 0 0 0 0 0 0
0 0 0 0 0 0 0 0 0 0 0 0 0 0 0 0 0 0 0 0 0 0 0 0 0 0 0 0 0 0 0 0 0 0 0 0 0 0 0 0 0 0 0 0
0 0 0 0 0 0 0 0 0 0 0 0 0 0 0 0 0 0 0 0 0 0 0 0 0 0 0 0 0 0 0 0 0 0 0 0 0 0 0 0 0 0 0 0
0 0 0 0 0 0 0 0 0 0 0 0 0 0 0 0 0 0 0 0 0 0 0 0 0 0 0 0 0 0 0 0 0 0 0 0 0 0 0 0 0 0 0 0
0 0 0 0 0 0 0 0 0 0 0 0 0 0 0 0 0 0 0 0 0 0 0 0 0 0 0 0 0 0 0 0 0 0 0 0 0 0 0 0 0 0 0 0
0 0 0 0 0 0 0 0 0 0 0 0 0 0 0 0 0 0 0 0 0 0 0 0 0 0 0 0 0 0 0 0 0 0 0 0 0 0 0 0 0 0 0 0
0 0 0 0 0 0 0 0 0 0 0 0 0 0 0 0 0 0 0 0 0 0 0 0 0 0 0 0 0 0 0 0 0 0 0 0 0 0 0 0 0 0 0 0
0 0 0 0 0 0 0 0 0 0 0 0 0 0 0 0 0 0 0 0 0 0 0 0 0 0 0 0 0 0 0 0 0 0 0 0 0 0 0 0 0 0 0 0
Wind_Speed
3 3 1 1 2 0 2 3 4 4 7 9 10 11 11 11 11 11 11 11 10 9 9 9 9 9 10 10 9 10 11 11 10 9 9 9 8 8 7 7 8 7 7 7
2 1 0 2 4 3 2 2 4 7 4 6 10 10 11 11 12 12 11 11 11 10 10 9 9 9 9 9 8 9 10 9 8 8 8 8 7 6 7 7 6 7 7 7
1 3 2 3 3 2 3 3 3 3 5 12 12 12 12 12 11 11 12 12 11 10 9 8 8 8 8 8 8 8 8 8 7 7 7 6 6 6 6 5 5 6 5 6
1 1 2 3 1 4 5 4 2 4 9 11 11 10 8 9 11 12 12 11 11 9 9 8 7 7 7 7 7 8 7 7 6 6 6 5 6 5 4 3 4 3 4 4
3 1 2 2 1 3 4 2 3 8 11 11 13 10 7 7 9 10 10 10 9 9 8 8 7 7 7 7 7 7 6 5 5 5 5 5 4 4 3 3 3 3 3 4
4 3 4 4 1 3 5 1 3 8 12 13 9 6 5 9 11 11 10 9 9 8 9 8 7 7 7 6 6 5 5 4 4 4 4 4 3 2 2 2 2 3 4 4
3 2 4 2 1 2 1 4 6 8 10 8 4 5 10 13 11 11 11 10 9 9 8 7 7 7 7 6 5 4 4 4 4 3 3 3 3 2 2 3 3 3 4 3
3 2 4 2 2 3 4 3 7 8 8 8 10 13 13 13 13 12 11 10 9 8 7 6 6 8 7 5 4 4 5 4 3 3 3 3 4 3 3 4 4 3 3 3
5 4 2 2 0 1 4 7 6 8 10 13 14 13 13 13 12 11 11 9 8 9 8 6 5 7 7 4 4 5 5 4 4 4 4 3 3 4 3 3 3 2 2 1
2 1 2 3 3 4 5 7 9 11 12 13 14 14 13 12 11 10 9 9 8 9 8 6 5 5 5 4 5 5 4 4 3 4 4 4 3 3 3 2 2 2 1 1
2 1 3 4 4 6 9 12 13 11 10 12 15 14 13 11 11 9 8 7 7 7 7 6 5 4 4 4 5 5 4 3 3 3 3 3 3 2 2 1 1 2 1 1
7 8 6 5 4 7 11 11 13 14 11 10 12 13 12 10 8 9 9 7 7 7 6 6 5 4 3 4 5 5 3 3 2 2 2 2 2 2 2 1 1 2 3 2
6 6 7 9 7 7 9 11 11 12 13 12 10 11 11 9 8 8 8 8 7 7 6 5 5 4 3 4 4 4 4 3 2 2 3 2 2 2 1 2 1 0 1 2
11 11 9 6 6 8 12 12 12 12 11 11 10 10 10 9 8 8 8 6 6 6 5 5 4 3 3 4 4 4 3 3 3 2 3 3 3 2 1 1 1 1 2 2
7 8 11 11 11 11 12 13 14 12 10 10 9 10 10 9 8 7 6 6 6 5 4 4 4 3 3 4 4 4 3 2 2 2 2 2 2 2 2 1 1 0 1 2
11 14 15 15 14 13 13 13 13 11 10 9 8 8 8 8 7 6 6 6 6 5 4 4 3 3 3 4 4 3 2 3 4 3 2 2 2 2 2 2 1 0 1 1
15 14 14 15 14 13 11 11 11 11 10 9 9 8 8 8 7 5 4 4 4 4 4 4 3 2 3 4 4 3 2 2 4 3 2 3 2 2 2 2 1 1 0 1
13 14 15 17 15 13 11 10 10 11 10 9 10 9 9 8 7 5 4 4 4 2 2 2 2 2 3 4 4 3 3 2 2 3 2 2 2 2 2 2 1 1 0 1
13 14 13 13 13 12 11 10 10 9 9 10 10 9 7 6 6 5 5 5 5 3 2 2 4 3 3 3 4 3 3 3 2 2 2 3 3 2 2 2 1 1 1 0
12 14 14 13 11 11 11 10 10 9 9 9 9 8 6 5 6 6 5 4 4 3 3 4 4 3 3 3 4 3 3 3 3 3 3 3 3 2 2 2 2 1 1 1
15 15 15 14 12 11 11 11 11 10 9 9 10 9 7 6 6 6 5 2 2 3 4 5 3 3 2 3 3 2 2 3 3 3 3 3 3 2 2 2 1 1 1 1
15 14 14 13 12 10 9 10 10 10 9 8 8 8 7 6 5 4 3 3 3 5 4 3 3 3 4 4 2 2 2 3 3 3 3 3 3 3 2 2 2 1 1 1
13 13 14 13 13 11 10 9 10 10 10 9 9 8 7 6 5 4 3 3 3 6 4 3 4 5 5 3 2 2 2 3 4 4 4 4 3 3 3 3 2 2 2 1
12 13 12 11 11 11 11 9 9 8 9 8 8 8 7 5 3 3 2 4 7 7 4 4 6 6 5 2 2 2 2 3 4 4 4 3 3 3 3 3 2 2 2 2
13 12 12 13 12 10 10 9 8 7 8 6 6 7 6 5 5 4 4 5 7 7 4 4 6 6 4 2 2 2 3 3 4 4 4 4 4 4 4 3 3 3 3 3
12 11 11 11 10 9 8 8 7 6 6 5 4 4 4 3 3 4 4 5 6 6 4 3 4 5 3 3 3 3 3 3 4 4 5 4 5 4 4 4 5 4 3 3
10 9 8 7 6 8 9 9 8 8 8 7 6 5 5 4 4 4 5 4 4 5 4 4 4 4 4 3 3 3 3 3 4 4 4 4 4 5 5 6 5 4 4 4
Wind_Direction
240 255 243 271 317 65 155 185 185 172 153 158 149 138 132 128 126 121 116 110 106 102 96 91 88 85 84 84 84 89 89 87 86 85 84 82 80 78 77 76 77 76 74 67
342 355 211 16 5 22 54 71 106 111 103 128 127 127 134 137 135 130 125 121 117 113 108 102 100 99 95 92 90 92 92 91 91 88 85 83 83 82 79 75 71 70 67 65
290 331 11 341 336 31 63 52 117 146 145 140 139 144 145 143 139 134 130 127 123 120 117 113 109 108 105 102 97 93 94 95 93 91 88 87 91 84 79 75 74 70 64 64
113 30 265 269 358 105 94 51 51 111 135 141 131 121 118 132 136 134 133 131 129 126 120 113 108 106 105 102 98 97 95 95 96 95 92 88 86 83 81 81 80 74 66 61
117 129 296 289 165 138 110 56 88 124 125 118 114 104 98 114 125 129 129 128 126 123 120 117 116 116 110 101 101 101 100 98 99 102 100 94 89 85 83 88 79 74 72 63
126 150 234 254 260 138 103 96 141 137 137 138 134 132 138 132 123 121 119 121 120 118 116 117 120 120 114 110 108 110 112 108 102 104 106 103 100 92 84 96 96 89 74 62
142 187 259 285 156 125 156 226 155 144 144 142 128 128 131 129 122 122 121 122 120 117 117 121 125 120 117 117 120 123 113 106 99 99 109 110 94 80 93 99 95 84 77 57
140 174 253 344 121 169 203 126 128 130 128 116 113 116 123 125 126 126 124 121 120 117 115 115 122 122 122 128 133 119 110 104 93 84 93 99 95 83 83 99 96 83 75 52
170 201 256 336 72 81 128 123 122 124 124 124 123 126 126 126 127 127 126 125 121 120 115 109 119 129 131 140 130 116 107 100 91 84 75 80 94 93 79 80 93 91 87 60
97 23 32 42 55 70 101 113 121 127 129 130 127 130 128 128 127 124 124 126 125 124 122 119 120 123 132 135 129 119 113 107 106 100 85 71 71 83 92 96 101 105 103 76
110 142 90 49 71 100 99 107 113 115 120 129 129 131 131 130 130 128 126 125 127 129 131 133 133 132 139 138 130 121 119 116 110 105 105 91 75 70 94 105 171 156 167 174
192 188 153 148 128 119 116 120 124 120 114 121 129 130 129 128 128 129 130 129 129 131 132 135 137 141 139 137 134 129 123 122 122 125 125 118 109 69 51 82 95 156 179 186
145 130 115 119 112 107 113 120 122 123 126 124 120 125 125 124 126 128 131 136 141 144 143 144 147 149 151 148 144 144 151 157 153 155 153 153 152 140 98 9 10 272 232 247
122 113 108 116 120 115 116 114 110 108 113 118 120 122 121 120 126 133 141 146 143 140 140 145 150 164 167 152 148 151 154 163 159 170 176 174 173 166 154 128 45 353 348 348
116 114 123 119 114 115 117 118 116 116 116 115 121 125 127 131 137 141 141 136 130 132 142 150 164 189 168 152 150 155 158 162 161 167 168 167 166 164 161 154 146 6 353 1
111 112 119 124 129 130 129 130 130 132 131 128 130 132 134 134 132 130 133 137 138 151 162 163 180 190 160 151 149 155 176 183 165 157 152 152 155 160 161 158 151 118 357 343
130 137 139 141 143 144 142 142 141 141 139 137 139 134 127 123 121 130 144 153 153 160 167 172 186 180 160 159 156 160 162 166 160 152 159 164 161 165 165 161 163 176 249 276
148 149 152 151 151 148 143 140 141 141 141 141 136 132 134 139 147 155 150 132 119 117 156 177 170 145 142 153 154 153 154 157 158 163 158 159 160 158 156 165 177 178 225 340
134 138 141 144 146 145 145 145 144 141 137 137 139 144 148 152 152 146 137 136 144 165 203 183 161 146 144 158 151 151 157 158 156 157 151 152 148 151 158 162 165 174 176 165
136 139 140 140 139 141 144 144 141 139 141 140 138 137 141 149 147 144 146 164 193 194 181 163 152 154 165 168 157 155 163 167 162 154 148 152 158 161 161 160 159 166 179 199
144 145 145 146 145 145 147 146 146 146 145 145 147 153 157 156 151 145 147 190 237 184 165 162 155 160 163 157 153 153 161 164 160 157 157 158 157 157 159 163 169 175 181 191
149 149 151 150 147 147 148 148 148 147 146 150 151 149 146 150 154 156 180 198 192 166 157 159 164 172 165 149 144 160 164 162 157 155 157 159 163 167 173 178 185 192 195 202
152 152 153 154 153 150 146 150 152 153 155 159 158 159 161 165 163 164 207 212 167 169 163 174 183 180 165 148 158 171 172 169 168 170 172 173 175 177 180 187 193 198 197 199
150 153 153 149 143 145 153 160 157 159 161 162 166 166 159 158 182 204 189 169 171 172 175 187 189 184 165 158 173 187 189 180 177 176 175 175 178 182 187 190 197 204 206 203
152 150 148 149 155 163 163 156 150 152 155 160 167 170 168 169 176 187 171 173 176 171 174 190 189 179 168 175 193 206 203 193 185 179 181 182 188 193 198 199 201 203 205 205
153 157 161 165 164 160 158 158 159 161 162 163 170 174 173 169 166 151 157 171 173 175 174 174 176 178 183 194 209 215 207 195 189 191 194 195 199 200 204 208 210 208 207 205
146 148 149 149 152 157 159 163 166 170 172 172 175 179 174 168 164 166 167 167 170 176 179 180 182 187 194 203 213 213 204 196 193 194 196 198 200 206 210 211 210 206 202 202